Time,TemperatureF,DewpointF,PressureIn,WindDirection,WindDirectionDegrees,WindSpeedMPH,WindSpeedGustMPH,Humidity,HourlyPrecipIn,Conditions,Clouds,dailyrainin,SoftwareType,DateUTC
2013-04-02 00:02:00,29.0,20.0,30.22,North,349,4.0,6.0,69,0.00,,,0.00,,2013-04-02 05:02:00,
2013-04-02 00:12:00,29.0,20.0,30.22,North,349,4.0,6.0,69,0.00,,,0.00,,2013-04-02 05:12:00,
2013-04-02 00:22:00,29.0,21.0,30.22,NW,306,2.0,5.0,71,0.00,,,0.00,,2013-04-02 05:22:00,
2013-04-02 00:32:00,28.0,20.0,30.22,NW,306,3.0,6.0,72,0.00,,,0.00,,2013-04-02 05:32:00,
2013-04-02 00:42:00,28.0,20.0,30.22,NW,306,3.0,6.0,72,0.00,,,0.00,,2013-04-02 05:42:00,
2013-04-02 00:52:00,28.0,20.0,30.23,NW,321,3.0,6.0,72,0.00,,,0.00,,2013-04-02 05:52:00,
2013-04-02 01:02:00,28.0,20.0,30.23,NW,315,4.0,6.0,72,0.00,,,0.00,,2013-04-02 06:02:00,
2013-04-02 01:12:00,28.0,20.0,30.23,NW,315,4.0,6.0,72,0.00,,,0.00,,2013-04-02 06:12:00,
2013-04-02 01:22:00,28.0,20.0,30.23,NW,316,2.0,5.0,73,0.00,,,0.00,,2013-04-02 06:22:00,
2013-04-02 01:32:00,28.0,20.0,30.24,NW,313,4.0,6.0,73,0.00,,,0.00,,2013-04-02 06:32:00,
2013-04-02 01:42:00,28.0,20.0,30.24,NW,313,4.0,6.0,73,0.00,,,0.00,,2013-04-02 06:42:00,
2013-04-02 01:52:00,28.0,20.0,30.24,NW,317,3.0,5.0,72,0.00,,,0.00,,2013-04-02 06:52:00,
2013-04-02 02:02:00,28.0,20.0,30.24,NNW,330,2.0,5.0,72,0.00,,,0.00,,2013-04-02 07:02:00,
2013-04-02 02:12:00,28.0,20.0,30.24,NNW,330,2.0,5.0,72,0.00,,,0.00,,2013-04-02 07:12:00,
2013-04-02 02:22:00,28.0,20.0,30.24,NNW,330,2.0,5.0,72,0.00,,,0.00,,2013-04-02 07:22:00,
2013-04-02 02:32:00,27.0,19.0,30.24,NW,315,2.0,5.0,72,0.00,,,0.00,,2013-04-02 07:32:00,
2013-04-02 02:42:00,27.0,19.0,30.24,NW,315,2.0,5.0,72,0.00,,,0.00,,2013-04-02 07:42:00,
2013-04-02 02:53:00,27.0,20.0,30.24,NW,321,3.0,7.0,74,0.00,,,0.00,,2013-04-02 07:53:00,
2013-04-02 03:02:00,27.0,20.0,30.24,WSW,254,2.0,7.0,74,0.00,,,0.00,,2013-04-02 08:02:00,
2013-04-02 03:13:00,27.0,20.0,30.24,WSW,254,2.0,7.0,74,0.00,,,0.00,,2013-04-02 08:13:00,
2013-04-02 03:22:00,27.0,20.0,30.24,NW,321,2.0,5.0,75,0.00,,,0.00,,2013-04-02 08:22:00,
2013-04-02 03:32:00,27.0,20.0,30.24,West,265,2.0,6.0,76,0.00,,,0.00,,2013-04-02 08:32:00,
2013-04-02 03:42:00,27.0,20.0,30.24,West,265,2.0,6.0,76,0.00,,,0.00,,2013-04-02 08:42:00,
2013-04-02 03:52:00,26.0,20.0,30.24,West,280,1.0,5.0,77,0.00,,,0.00,,2013-04-02 08:52:00,
2013-04-02 04:02:00,26.0,20.0,30.24,NW,307,1.0,4.0,77,0.00,,,0.00,,2013-04-02 09:02:00,
2013-04-02 04:12:00,26.0,20.0,30.24,NW,307,1.0,4.0,77,0.00,,,0.00,,2013-04-02 09:12:00,
2013-04-02 04:22:00,26.0,20.0,30.24,WNW,299,2.0,5.0,77,0.00,,,0.00,,2013-04-02 09:22:00,
2013-04-02 04:32:00,26.0,20.0,30.24,NNW,327,1.0,5.0,77,0.00,,,0.00,,2013-04-02 09:32:00,
2013-04-02 04:43:00,26.0,20.0,30.24,NNW,327,1.0,5.0,77,0.00,,,0.00,,2013-04-02 09:43:00,
2013-04-02 04:52:00,26.0,20.0,30.24,NW,313,1.0,4.0,77,0.00,,,0.00,,2013-04-02 09:52:00,
2013-04-02 05:03:00,26.0,20.0,30.25,WSW,257,0.0,4.0,77,0.00,,,0.00,,2013-04-02 10:03:00,
2013-04-02 05:13:00,26.0,20.0,30.25,WSW,257,0.0,4.0,77,0.00,,,0.00,,2013-04-02 10:13:00,
2013-04-02 05:23:00,25.0,19.0,30.25,WSW,257,0.0,0.0,77,0.00,,,0.00,,2013-04-02 10:23:00,
2013-04-02 05:33:00,25.0,19.0,30.25,WSW,257,0.0,0.0,77,0.00,,,0.00,,2013-04-02 10:33:00,
2013-04-02 05:42:00,25.0,19.0,30.25,WSW,257,0.0,0.0,77,0.00,,,0.00,,2013-04-02 10:42:00,
2013-04-02 05:52:00,23.0,18.0,30.26,WSW,257,0.0,2.0,81,0.00,,,0.00,,2013-04-02 10:52:00,
2013-04-02 06:02:00,23.0,18.0,30.26,WSW,257,0.0,2.0,82,0.00,,,0.00,,2013-04-02 11:02:00,
2013-04-02 06:12:00,23.0,18.0,30.26,WSW,257,0.0,2.0,82,0.00,,,0.00,,2013-04-02 11:12:00,
2013-04-02 06:22:00,23.0,18.0,30.26,WSW,257,0.0,2.0,81,0.00,,,0.00,,2013-04-02 11:22:00,
2013-04-02 06:33:00,23.0,18.0,30.27,WSW,257,0.0,0.0,82,0.00,,,0.00,,2013-04-02 11:33:00,
2013-04-02 06:43:00,23.0,18.0,30.27,WSW,257,0.0,0.0,82,0.00,,,0.00,,2013-04-02 11:43:00,
2013-04-02 06:52:00,23.0,19.0,30.27,WSW,257,0.0,1.0,83,0.00,,,0.00,,2013-04-02 11:52:00,
2013-04-02 07:02:00,22.0,17.0,30.27,WSW,257,0.0,1.0,82,0.00,,,0.00,,2013-04-02 12:02:00,
2013-04-02 07:12:00,22.0,17.0,30.27,WSW,257,0.0,1.0,82,0.00,,,0.00,,2013-04-02 12:12:00,
2013-04-02 07:22:00,22.0,18.0,30.28,WSW,257,0.0,0.0,83,0.00,,,0.00,,2013-04-02 12:22:00,
2013-04-02 07:32:00,22.0,18.0,30.28,WSW,257,0.0,1.0,84,0.00,,,0.00,,2013-04-02 12:32:00,
2013-04-02 07:42:00,22.0,18.0,30.28,WSW,257,0.0,1.0,84,0.00,,,0.00,,2013-04-02 12:42:00,
2013-04-02 07:52:00,23.0,19.0,30.29,WSW,257,0.0,2.0,84,0.00,,,0.00,,2013-04-02 12:52:00,
2013-04-02 08:02:00,24.0,20.0,30.30,WSW,258,0.0,4.0,83,0.00,,,0.00,,2013-04-02 13:02:00,
2013-04-02 08:12:00,24.0,20.0,30.30,WSW,258,0.0,4.0,83,0.00,,,0.00,,2013-04-02 13:12:00,
2013-04-02 08:22:00,26.0,21.0,30.31,SE,146,2.0,5.0,82,0.00,,,0.00,,2013-04-02 13:22:00,
2013-04-02 08:33:00,27.0,22.0,30.31,WSW,257,2.0,5.0,80,0.00,,,0.00,,2013-04-02 13:33:00,
2013-04-02 08:42:00,27.0,22.0,30.31,WSW,257,2.0,5.0,80,0.00,,,0.00,,2013-04-02 13:42:00,
2013-04-02 08:52:00,28.0,22.0,30.31,WSW,254,3.0,5.0,78,0.00,,,0.00,,2013-04-02 13:52:00,
2013-04-02 09:02:00,30.0,23.0,30.31,WNW,284,2.0,5.0,75,0.00,,,0.00,,2013-04-02 14:02:00,
2013-04-02 09:12:00,30.0,23.0,30.31,WNW,284,2.0,5.0,75,0.00,,,0.00,,2013-04-02 14:12:00,
2013-04-02 09:23:00,30.0,22.0,30.31,WSW,253,4.0,7.0,73,0.00,,,0.00,,2013-04-02 14:23:00,
2013-04-02 09:32:00,31.0,22.0,30.31,North,360,3.0,6.0,70,0.00,,,0.00,,2013-04-02 14:32:00,
2013-04-02 09:42:00,31.0,22.0,30.31,North,360,3.0,6.0,70,0.00,,,0.00,,2013-04-02 14:42:00,
2013-04-02 09:52:00,31.0,22.0,30.31,North,360,3.0,6.0,70,0.00,,,0.00,,2013-04-02 14:52:00,
2013-04-02 10:02:00,32.0,22.0,30.31,NW,311,2.0,6.0,65,0.00,,,0.00,,2013-04-02 15:02:00,
2013-04-02 10:11:00,32.0,22.0,30.31,NW,311,2.0,6.0,65,0.00,,,0.00,,2013-04-02 15:11:00,
2013-04-02 10:22:00,33.0,21.0,30.31,NW,323,3.0,6.0,62,0.00,,,0.00,,2013-04-02 15:22:00,
2013-04-02 10:33:00,33.0,20.0,30.31,NNW,336,2.0,7.0,58,0.00,,,0.00,,2013-04-02 15:33:00,
2013-04-02 10:43:00,33.0,20.0,30.31,NNW,336,2.0,7.0,58,0.00,,,0.00,,2013-04-02 15:43:00,
2013-04-02 10:55:00,34.0,21.0,30.31,West,259,3.0,8.0,58,0.00,,,0.00,,2013-04-02 15:55:00,
2013-04-02 11:04:00,36.0,19.0,30.31,NNW,338,3.0,8.0,50,0.00,,,0.00,,2013-04-02 16:04:00,
2013-04-02 11:13:00,36.0,19.0,30.31,NNW,338,3.0,8.0,50,0.00,,,0.00,,2013-04-02 16:13:00,
2013-04-02 11:24:00,36.0,16.0,30.31,NNW,329,6.0,12.0,44,0.00,,,0.00,,2013-04-02 16:24:00,
2013-04-02 11:35:00,36.0,16.0,30.31,NNW,329,6.0,12.0,44,0.00,,,0.00,,2013-04-02 16:35:00,
2013-04-02 11:43:00,36.0,16.0,30.31,NNW,329,6.0,12.0,44,0.00,,,0.00,,2013-04-02 16:43:00,
2013-04-02 11:53:00,37.0,18.0,30.31,NNW,329,4.0,9.0,46,0.00,,,0.00,,2013-04-02 16:53:00,
2013-04-02 12:05:00,37.0,17.0,30.30,NNW,336,5.0,11.0,43,0.00,,,0.00,,2013-04-02 17:05:00,
2013-04-02 12:13:00,37.0,17.0,30.30,NNW,336,5.0,11.0,43,0.00,,,0.00,,2013-04-02 17:13:00,
2013-04-02 12:24:00,38.0,17.0,30.30,West,261,4.0,11.0,42,0.00,,,0.00,,2013-04-02 17:24:00,
2013-04-02 12:34:00,38.0,16.0,30.29,North,360,5.0,11.0,40,0.00,,,0.00,,2013-04-02 17:34:00,
2013-04-02 12:43:00,38.0,16.0,30.29,North,360,5.0,11.0,40,0.00,,,0.00,,2013-04-02 17:43:00,
2013-04-02 12:54:00,39.0,17.0,30.29,ESE,105,4.0,10.0,40,0.00,,,0.00,,2013-04-02 17:54:00,
2013-04-02 13:03:00,40.0,17.0,30.29,NNW,342,4.0,8.0,39,0.00,,,0.00,,2013-04-02 18:03:00,
2013-04-02 13:12:00,40.0,17.0,30.29,NNW,342,4.0,8.0,39,0.00,,,0.00,,2013-04-02 18:12:00,
2013-04-02 13:23:00,40.0,16.0,30.28,West,262,3.0,11.0,38,0.00,,,0.00,,2013-04-02 18:23:00,
2013-04-02 13:34:00,40.0,14.0,30.27,West,261,5.0,11.0,34,0.00,,,0.00,,2013-04-02 18:34:00,
2013-04-02 13:43:00,40.0,14.0,30.27,West,261,5.0,11.0,34,0.00,,,0.00,,2013-04-02 18:43:00,
2013-04-02 13:54:00,41.0,13.0,30.27,SW,229,8.0,14.0,32,0.00,,,0.00,,2013-04-02 18:54:00,
2013-04-02 14:03:00,40.0,15.0,30.27,NNE,30,5.0,12.0,35,0.00,,,0.00,,2013-04-02 19:03:00,
2013-04-02 14:13:00,40.0,15.0,30.27,NNE,30,5.0,12.0,35,0.00,,,0.00,,2013-04-02 19:13:00,
2013-04-02 14:23:00,41.0,14.0,30.27,SSW,199,6.0,12.0,33,0.00,,,0.00,,2013-04-02 19:23:00,
2013-04-02 14:34:00,42.0,15.0,30.26,NNW,330,6.0,12.0,33,0.00,,,0.00,,2013-04-02 19:34:00,
2013-04-02 14:45:00,42.0,15.0,30.26,NNW,330,6.0,12.0,33,0.00,,,0.00,,2013-04-02 19:45:00,
2013-04-02 14:53:00,42.0,16.0,30.26,WNW,298,5.0,12.0,34,0.00,,,0.00,,2013-04-02 19:53:00,
2013-04-02 15:03:00,42.0,15.0,30.25,West,263,3.0,12.0,33,0.00,,,0.00,,2013-04-02 20:03:00,
2013-04-02 15:13:00,42.0,15.0,30.25,West,263,3.0,12.0,33,0.00,,,0.00,,2013-04-02 20:13:00,
2013-04-02 15:22:00,43.0,17.0,30.24,West,261,6.0,13.0,34,0.00,,,0.00,,2013-04-02 20:22:00,
2013-04-02 15:33:00,43.0,17.0,30.24,West,279,5.0,15.0,34,0.00,,,0.00,,2013-04-02 20:33:00,
2013-04-02 15:43:00,43.0,17.0,30.24,West,279,5.0,15.0,34,0.00,,,0.00,,2013-04-02 20:43:00,
2013-04-02 15:53:00,43.0,17.0,30.24,West,279,5.0,15.0,34,0.00,,,0.00,,2013-04-02 20:53:00,
2013-04-02 16:04:00,43.0,13.0,30.24,NW,310,7.0,17.0,29,0.00,,,0.00,,2013-04-02 21:04:00,
2013-04-02 16:13:00,43.0,13.0,30.24,NW,310,7.0,17.0,29,0.00,,,0.00,,2013-04-02 21:13:00,
2013-04-02 16:23:00,43.0,14.0,30.24,West,267,7.0,17.0,30,0.00,,,0.00,,2013-04-02 21:23:00,
2013-04-02 16:34:00,43.0,14.0,30.24,NW,308,7.0,16.0,30,0.00,,,0.00,,2013-04-02 21:34:00,
2013-04-02 16:54:00,43.0,14.0,30.24,NW,325,7.0,13.0,30,0.00,,,0.00,,2013-04-02 21:54:00,
2013-04-02 17:04:00,44.0,15.0,30.24,NNW,338,7.0,13.0,31,0.00,,,0.00,,2013-04-02 22:04:00,
2013-04-02 17:14:00,44.0,15.0,30.24,NNW,338,7.0,13.0,31,0.00,,,0.00,,2013-04-02 22:14:00,
2013-04-02 17:24:00,44.0,15.0,30.24,NNW,338,7.0,13.0,31,0.00,,,0.00,,2013-04-02 22:24:00,
2013-04-02 17:33:00,43.0,17.0,30.25,NW,323,6.0,13.0,34,0.00,,,0.00,,2013-04-02 22:33:00,
2013-04-02 17:43:00,43.0,17.0,30.25,NW,323,6.0,13.0,34,0.00,,,0.00,,2013-04-02 22:43:00,
2013-04-02 17:54:00,43.0,18.0,30.24,NNW,348,5.0,13.0,36,0.00,,,0.00,,2013-04-02 22:54:00,
2013-04-02 18:03:00,43.0,17.0,30.25,NNW,336,6.0,12.0,34,0.00,,,0.00,,2013-04-02 23:03:00,
2013-04-02 18:13:00,43.0,17.0,30.25,NNW,336,6.0,12.0,34,0.00,,,0.00,,2013-04-02 23:13:00,
2013-04-02 18:23:00,43.0,18.0,30.25,NNW,327,6.0,11.0,36,0.00,,,0.00,,2013-04-02 23:23:00,
2013-04-02 18:42:00,42.0,18.0,30.25,NW,325,6.0,10.0,37,0.00,,,0.00,,2013-04-02 23:42:00,
2013-04-02 18:52:00,41.0,16.0,30.25,WNW,300,5.0,12.0,36,0.00,,,0.00,,2013-04-02 23:52:00,
2013-04-02 19:04:00,41.0,17.0,30.26,NNW,336,5.0,10.0,38,0.00,,,0.00,,2013-04-03 00:04:00,
2013-04-02 19:13:00,41.0,17.0,30.26,NNW,336,5.0,10.0,38,0.00,,,0.00,,2013-04-03 00:13:00,
2013-04-02 19:24:00,40.0,18.0,30.26,NW,318,4.0,11.0,40,0.00,,,0.00,,2013-04-03 00:24:00,
2013-04-02 19:33:00,39.0,18.0,30.26,NW,317,4.0,7.0,43,0.00,,,0.00,,2013-04-03 00:33:00,
2013-04-02 19:46:00,39.0,18.0,30.26,NW,317,4.0,7.0,43,0.00,,,0.00,,2013-04-03 00:46:00,
2013-04-02 19:53:00,38.0,19.0,30.26,North,355,3.0,6.0,45,0.00,,,0.00,,2013-04-03 00:53:00,
2013-04-02 20:03:00,38.0,20.0,30.27,NNW,333,3.0,7.0,48,0.00,,,0.00,,2013-04-03 01:03:00,
2013-04-02 20:12:00,38.0,20.0,30.27,NNW,333,3.0,7.0,48,0.00,,,0.00,,2013-04-03 01:12:00,
2013-04-02 20:22:00,37.0,20.0,30.27,NW,308,2.0,5.0,49,0.00,,,0.00,,2013-04-03 01:22:00,
2013-04-02 20:33:00,37.0,21.0,30.28,WNW,293,2.0,5.0,51,0.00,,,0.00,,2013-04-03 01:33:00,
2013-04-02 20:42:00,37.0,21.0,30.28,WNW,293,2.0,5.0,51,0.00,,,0.00,,2013-04-03 01:42:00,
2013-04-02 20:52:00,36.0,21.0,30.29,NW,313,3.0,6.0,53,0.00,,,0.00,,2013-04-03 01:52:00,
2013-04-02 21:03:00,36.0,21.0,30.29,NW,307,4.0,8.0,54,0.00,,,0.00,,2013-04-03 02:03:00,
2013-04-02 21:13:00,36.0,21.0,30.29,NW,307,4.0,8.0,54,0.00,,,0.00,,2013-04-03 02:13:00,
2013-04-02 21:24:00,35.0,22.0,30.29,NW,304,2.0,4.0,59,0.00,,,0.00,,2013-04-03 02:24:00,
2013-04-02 21:34:00,34.0,21.0,30.30,West,269,1.0,4.0,59,0.00,,,0.00,,2013-04-03 02:34:00,
2013-04-02 21:43:00,34.0,21.0,30.30,West,269,1.0,4.0,59,0.00,,,0.00,,2013-04-03 02:43:00,
2013-04-02 21:52:00,34.0,21.0,30.31,West,280,1.0,3.0,59,0.00,,,0.00,,2013-04-03 02:52:00,
2013-04-02 22:05:00,33.0,21.0,30.31,West,280,0.0,1.0,61,0.00,,,0.00,,2013-04-03 03:05:00,
2013-04-02 22:13:00,33.0,21.0,30.31,West,280,0.0,1.0,61,0.00,,,0.00,,2013-04-03 03:13:00,
2013-04-02 22:23:00,32.0,21.0,30.31,West,280,0.0,0.0,63,0.00,,,0.00,,2013-04-03 03:23:00,
2013-04-02 22:43:00,32.0,21.0,30.32,West,280,0.0,1.0,64,0.00,,,0.00,,2013-04-03 03:43:00,
2013-04-02 22:53:00,31.0,21.0,30.32,West,280,0.0,1.0,66,0.00,,,0.00,,2013-04-03 03:53:00,
2013-04-02 23:03:00,31.0,21.0,30.32,West,280,0.0,1.0,66,0.00,,,0.00,,2013-04-03 04:03:00,
2013-04-02 23:12:00,31.0,21.0,30.32,West,280,0.0,1.0,66,0.00,,,0.00,,2013-04-03 04:12:00,
2013-04-02 23:23:00,31.0,21.0,30.32,West,280,0.0,1.0,66,0.00,,,0.00,,2013-04-03 04:23:00,
2013-04-02 23:33:00,31.0,21.0,30.32,West,280,0.0,3.0,65,0.00,,,0.00,,2013-04-03 04:33:00,
2013-04-02 23:43:00,31.0,21.0,30.32,West,280,0.0,3.0,65,0.00,,,0.00,,2013-04-03 04:43:00,
2013-04-02 23:53:00,31.0,21.0,30.32,West,280,1.0,2.0,66,0.00,,,0.00,,2013-04-03 04:53:00,